Regional Weather Roundup
Issued by NWS

Home | Current Version | Previous Version | Graphics & Text | Print | Product List | Glossary On
Versions: 1 2 3 4 5 6 7 8 9 10 11 12 13 14 15 16 17 18 19 20 21 22 23 24 25 26 27 28 29 30 31 32 33 34 35 36 37 38 39 40 41 42 43 44 45 46 47 48 49 50
681
ASUS43 KOAX 211202
RWRNE

WEATHER ROUNDUP FOR NEBRASKA
NATIONAL WEATHER SERVICE OMAHA NE
600 AM CST WED FEB 21 2018

NOTES: SATELLITE DATA IS BEING USED TO AUGMENT CLOUD COVER ABOVE
       12000 FEET.
       "FAIR" INDICATES FEW OR NO CLOUDS BELOW 12,000 FEET WITH NO
       SIGNIFICANT WEATHER AND/OR OBSTRUCTIONS TO VISIBILITY.


NEZ001>004-019>022-054>056-211300-
NEBRASKA PANHANDLE

CITY           SKY/WX    TMP DP  RH WIND       PRES   REMARKS
SCOTTSBLUFF    PTCLDY   -10 -14  82 N8        30.25F WCI -26
6HR MIN TEMP: -11; 6HR MAX TEMP:  -4;

ALLIANCE       CLEAR    -23 -28  78 CALM      30.25R
6HR MIN TEMP: -27; 6HR MAX TEMP: -18;

CHADRON        PTCLDY   -19 -27  66 W5        30.30S WCI -32
6HR MIN TEMP: -20; 6HR MAX TEMP:  -9;

GORDON         FAIR      -9 -15  76 W6        30.27S WCI -23
6HR MIN TEMP: -19; 6HR MAX TEMP:  -3;

KIMBALL        CLEAR     -6 -10  81 W14       30.19F WCI -26
SIDNEY         CLEAR    -10 -15  78 W10       30.24S WCI -29
6HR MIN TEMP: -10; 6HR MAX TEMP:   4;

$$

NEZ057>060-069>072-079>082-211300-
SOUTHWEST NEBRASKA

CITY           SKY/WX    TMP DP  RH WIND       PRES   REMARKS
NORTH PLATTE   CLEAR     -7 -12  79 NW5       30.38F WCI -18
6HR MIN TEMP:  -7; 6HR MAX TEMP:  -2;

IMPERIAL       CLEAR     -1  -6  79 CALM      30.33S
6HR MIN TEMP:  -5; 6HR MAX TEMP:   7;

LEXINGTON      CLEAR      4  -1  78 CALM      30.44R
MCCOOK         CLEAR      1  -3  83 W3        30.42R
6HR MIN TEMP:   1; 6HR MAX TEMP:   5;

OGALLALA       CLEAR     -4  -9  79 NW5       30.34S WCI -15
$$

NEZ005>010-023>029-035>040-094-211300-
NORTH CENTRAL NEBRASKA

CITY           SKY/WX    TMP DP  RH WIND       PRES   REMARKS
VALENTINE      CLEAR    -14 -20  74 W7        30.39R WCI -30
6HR MIN TEMP: -14; 6HR MAX TEMP:  -7;

AINSWORTH      CLEAR     -1  -7  74 W7        30.38F WCI -14
BROKEN BOW     CLEAR     -3  -9  75 S5        30.40F WCI -13
6HR MIN TEMP:  -4; 6HR MAX TEMP:   7;

O`NEILL        CLEAR     -4 -10  74 NW3       30.45S
ORD            CLEAR     -3  -8  79 CALM      30.46S
6HR MIN TEMP:  -4; 6HR MAX TEMP:  -1;

THEDFORD       CLEAR     -8 -13  76 CALM      30.36S
$$

NEZ041-046>049-061>064-073>077-083>087-211300-
SOUTH CENTRAL NEBRASKA

CITY           SKY/WX    TMP DP  RH WIND       PRES   REMARKS
GRAND ISLAND   CLEAR      5  -1  76 CALM      30.49S
6HR MIN TEMP:   4; 6HR MAX TEMP:   8;

AURORA         CLOUDY     2  -3  82 CALM      30.50S
HASTINGS       CLOUDY     4  -1  80 CALM      30.48F
6HR MIN TEMP:   1; 6HR MAX TEMP:   8;

HEBRON         CLOUDY     8   2  78 N6        30.54S WCI  -2
HOLDREGE       CLOUDY     3  -1  84 N3        30.44S
KEARNEY        CLEAR      1  -3  83 NW3       30.47S
YORK           CLOUDY     3   1  92 CALM      30.52S
$$

NEZ011>018-030>034-042>045-211300-
NORTHEAST NEBRASKA

CITY           SKY/WX    TMP DP  RH WIND       PRES   REMARKS
NORFOLK        CLOUDY     0  -4  83 NW5       30.51S WCI -10
6HR MIN TEMP:   0; 6HR MAX TEMP:   5;

ALBION         PTCLDY     0  -6  75 NW8       30.49F WCI -14
BLAIR          CLEAR      8   2  78 N3        30.55R
COLUMBUS       CLEAR      3  -1  83 CALM      30.54S
FREMONT        CLEAR      7   1  77 CALM      30.56R
TEKAMAH        CLEAR      6   1  80 N6        30.58R WCI  -4
6HR MIN TEMP:   6; 6HR MAX TEMP:  10;

WAYNE          PTCLDY     2  -3  80 CALM      30.54R
$$

NEZ050>053-065>068-078-088>093-211300-
SOUTHEAST NEBRASKA

CITY           SKY/WX    TMP DP  RH WIND       PRES   REMARKS
LINCOLN        CLOUDY     7   1  76 CALM      30.59R
6HR MIN TEMP:   4; 6HR MAX TEMP:  11;

OMAHA EPPLEY   CLEAR      8   3  80 N6        30.59R WCI  -2
6HR MIN TEMP:   8; 6HR MAX TEMP:  12;

BEATRICE       CLOUDY     8   4  84 N6        30.55R WCI  -2
FALLS CITY     CLOUDY    12   5  73 N9        30.57R WCI   0
6HR MIN TEMP:  11; 6HR MAX TEMP:  15;

NEBRASKA CITY  CLOUDY    10   6  87 N3        30.58R
PLATTSMOUTH    CLEAR      9   5  82 N3        30.56S
$$

NEZ044-045-051>053-067-211300-
OMAHA AREA

CITY           SKY/WX    TMP DP  RH WIND       PRES   REMARKS
OMAHA EPPLEY   CLEAR      8   3  80 N6        30.59R WCI  -2
6HR MIN TEMP:   8; 6HR MAX TEMP:  12;

BLAIR          CLEAR      8   2  78 N3        30.55R
FREMONT        CLEAR      7   1  77 CALM      30.56R
MILLARD        CLEAR     10   3  72 N5        30.59R WCI   2
OFFUTT AFB     CLEAR      9   2  72 N5        30.57R WCI   1
PLATTSMOUTH    CLEAR      9   5  82 N3        30.56S
WAHOO          FAIR       7   1  78 CALM      30.57R
$$




USA.gov is the U.S. government's official web portal to all federal, state and local government web resources and services.